TimeMDT,TemperatureF,Dew PointF,Humidity,Sea Level PressureIn,VisibilityMPH,Wind Direction,Wind SpeedMPH,Gust SpeedMPH,PrecipitationIn,Events,Conditions,WindDirDegrees,DateUTC
12:15 AM,80.6,59.0,48,29.90,10.0,SSE,17.3,25.3,N/A,,Clear,150,2013-06-24 06:15:00
12:35 AM,80.6,59.0,48,29.90,10.0,SSE,19.6,25.3,N/A,,Clear,150,2013-06-24 06:35:00
12:55 AM,78.8,59.0,51,29.90,10.0,SSE,23.0,28.8,N/A,,Clear,150,2013-06-24 06:55:00
1:15 AM,77.0,59.0,54,29.90,10.0,SSE,23.0,31.1,N/A,,Clear,160,2013-06-24 07:15:00
1:35 AM,77.0,59.0,54,29.90,10.0,SSE,20.7,26.5,N/A,Thunderstorm,Clear,160,2013-06-24 07:35:00
1:55 AM,77.0,59.0,54,29.90,10.0,SSE,23.0,28.8,N/A,,Clear,160,2013-06-24 07:55:00
2:15 AM,77.0,59.0,54,29.90,10.0,SSE,20.7,-,N/A,,Clear,150,2013-06-24 08:15:00
2:35 AM,75.2,59.0,57,29.90,10.0,SSE,19.6,25.3,N/A,,Clear,160,2013-06-24 08:35:00
2:55 AM,75.2,59.0,57,29.91,10.0,SSE,16.1,-,N/A,,Clear,160,2013-06-24 08:55:00
3:15 AM,75.2,59.0,57,29.90,10.0,SSE,19.6,-,N/A,,Clear,150,2013-06-24 09:15:00
3:35 AM,75.2,59.0,57,29.91,10.0,SSE,18.4,-,N/A,,Clear,150,2013-06-24 09:35:00
3:55 AM,73.4,59.0,61,29.91,10.0,SSE,16.1,-,N/A,,Clear,150,2013-06-24 09:55:00
4:15 AM,73.4,59.0,61,29.91,10.0,SSE,18.4,-,N/A,,Clear,150,2013-06-24 10:15:00
4:35 AM,73.4,59.0,61,29.90,10.0,SSE,17.3,21.9,N/A,,Clear,150,2013-06-24 10:35:00
4:55 AM,73.4,59.0,61,29.90,10.0,SSE,17.3,20.7,N/A,,Clear,150,2013-06-24 10:55:00
5:15 AM,73.4,59.0,61,29.91,10.0,SSE,16.1,-,N/A,,Clear,150,2013-06-24 11:15:00
5:35 AM,73.4,59.0,61,29.91,10.0,SSE,16.1,-,N/A,,Clear,150,2013-06-24 11:35:00
5:55 AM,73.4,59.0,61,29.93,10.0,South,15.0,24.2,N/A,,Clear,170,2013-06-24 11:55:00
6:15 AM,73.4,59.0,61,29.93,10.0,SSE,9.2,-,N/A,,Clear,160,2013-06-24 12:15:00
6:35 AM,73.4,59.0,61,29.94,10.0,SSE,10.4,-,N/A,,Clear,150,2013-06-24 12:35:00
6:55 AM,73.4,59.0,61,29.94,10.0,SSE,15.0,-,N/A,,Clear,150,2013-06-24 12:55:00
7:15 AM,75.2,59.0,57,29.94,10.0,SSE,11.5,-,N/A,,Clear,150,2013-06-24 13:15:00
7:35 AM,75.2,59.0,57,29.95,10.0,SSE,10.4,-,N/A,,Clear,150,2013-06-24 13:35:00
7:55 AM,75.2,59.0,57,29.95,10.0,SE,11.5,-,N/A,,Clear,140,2013-06-24 13:55:00
8:15 AM,75.2,59.0,57,29.96,10.0,SE,11.5,-,N/A,,Clear,140,2013-06-24 14:15:00
8:35 AM,77.0,59.0,54,29.96,10.0,SE,13.8,-,N/A,,Clear,140,2013-06-24 14:35:00
8:55 AM,78.8,59.0,51,29.96,10.0,SSE,13.8,-,N/A,,Clear,150,2013-06-24 14:55:00
9:15 AM,80.6,59.0,48,29.97,10.0,SSE,13.8,-,N/A,,Clear,150,2013-06-24 15:15:00
9:35 AM,80.6,59.0,48,29.97,10.0,South,15.0,-,N/A,,Clear,170,2013-06-24 15:35:00
9:55 AM,82.4,57.2,42,29.97,10.0,SSE,13.8,-,N/A,,Clear,160,2013-06-24 15:55:00
10:15 AM,82.4,57.2,42,29.97,10.0,SE,13.8,-,N/A,,Clear,140,2013-06-24 16:15:00
10:35 AM,86.0,57.2,37,29.96,10.0,SSE,13.8,-,N/A,,Clear,150,2013-06-24 16:35:00
10:55 AM,87.8,55.4,33,29.96,10.0,SE,12.7,17.3,N/A,,Clear,140,2013-06-24 16:55:00
11:15 AM,89.6,53.6,29,29.96,10.0,SE,10.4,-,N/A,,Clear,140,2013-06-24 17:15:00
11:35 AM,91.4,53.6,28,29.95,10.0,SE,13.8,18.4,N/A,,Clear,140,2013-06-24 17:35:00
11:55 AM,93.2,53.6,26,29.94,10.0,SE,17.3,-,N/A,,Clear,140,2013-06-24 17:55:00
12:15 PM,93.2,50.0,23,29.93,10.0,SE,11.5,21.9,N/A,,Clear,130,2013-06-24 18:15:00
12:35 PM,95.0,50.0,22,29.93,10.0,SSE,13.8,19.6,N/A,,Clear,160,2013-06-24 18:35:00
12:55 PM,95.0,50.0,22,29.92,10.0,ESE,12.7,19.6,N/A,,Clear,120,2013-06-24 18:55:00
1:15 PM,95.0,48.2,20,29.91,10.0,SE,12.7,18.4,N/A,,Clear,130,2013-06-24 19:15:00
1:35 PM,95.0,48.2,20,29.91,10.0,SSE,10.4,18.4,N/A,,Clear,150,2013-06-24 19:35:00
1:55 PM,98.6,44.6,16,29.89,10.0,SE,16.1,21.9,N/A,,Clear,140,2013-06-24 19:55:00
2:15 PM,100.4,44.6,15,29.88,10.0,South,11.5,25.3,N/A,,Clear,170,2013-06-24 20:15:00
2:35 PM,100.4,42.8,14,29.87,10.0,South,21.9,27.6,N/A,,Clear,180,2013-06-24 20:35:00
2:55 PM,100.4,35.6,11,29.86,10.0,SW,15.0,25.3,N/A,,Clear,220,2013-06-24 20:55:00
3:15 PM,102.2,35.6,10,29.86,10.0,SSW,16.1,23.0,N/A,,Clear,200,2013-06-24 21:15:00
3:35 PM,102.2,35.6,10,29.85,10.0,SSW,17.3,31.1,N/A,,Clear,210,2013-06-24 21:35:00
3:55 PM,102.2,37.4,11,29.85,10.0,WSW,18.4,27.6,N/A,,Clear,240,2013-06-24 21:55:00
4:15 PM,102.2,35.6,10,29.84,10.0,SW,13.8,24.2,N/A,,Clear,220,2013-06-24 22:15:00
4:35 PM,102.2,35.6,10,29.84,10.0,WSW,23.0,26.5,N/A,,Clear,250,2013-06-24 22:35:00
4:55 PM,102.2,35.6,10,29.84,10.0,WSW,20.7,26.5,N/A,,Clear,250,2013-06-24 22:55:00
5:15 PM,100.4,35.6,11,29.83,10.0,WSW,15.0,26.5,N/A,,Clear,240,2013-06-24 23:15:00
5:35 PM,100.4,35.6,11,29.83,10.0,WSW,21.9,31.1,N/A,,Clear,240,2013-06-24 23:35:00
5:55 PM,100.4,35.6,11,29.83,10.0,WSW,11.5,23.0,N/A,,Clear,240,2013-06-24 23:55:00
6:15 PM,100.4,35.6,11,29.84,10.0,SSW,17.3,-,N/A,,Clear,210,2013-06-25 00:15:00
6:35 PM,100.4,37.4,11,29.84,10.0,SSW,16.1,23.0,N/A,,Clear,210,2013-06-25 00:35:00
6:55 PM,98.6,37.4,12,29.84,10.0,SW,16.1,23.0,N/A,,Clear,220,2013-06-25 00:55:00
7:15 PM,98.6,37.4,12,29.85,10.0,SW,18.4,-,N/A,,Clear,230,2013-06-25 01:15:00
7:35 PM,96.8,37.4,13,29.85,10.0,SW,17.3,-,N/A,,Clear,230,2013-06-25 01:35:00
7:55 PM,95.0,35.6,12,29.85,10.0,WSW,12.7,-,N/A,,Clear,250,2013-06-25 01:55:00
8:15 PM,93.2,35.6,13,29.85,10.0,WSW,13.8,-,N/A,,Clear,250,2013-06-25 02:15:00
8:35 PM,91.4,37.4,15,29.87,10.0,South,12.7,-,N/A,,Clear,170,2013-06-25 02:35:00
8:55 PM,89.6,55.4,31,29.87,10.0,South,12.7,20.7,N/A,,Clear,180,2013-06-25 02:55:00
9:15 PM,89.6,57.2,33,29.87,10.0,SSE,23.0,29.9,N/A,,Clear,150,2013-06-25 03:15:00
9:35 PM,87.8,57.2,35,29.89,10.0,SSE,13.8,27.6,N/A,,Clear,150,2013-06-25 03:35:00
9:55 PM,86.0,57.2,37,29.90,10.0,SSE,13.8,17.3,N/A,,Clear,150,2013-06-25 03:55:00
10:15 PM,84.2,59.0,42,29.91,10.0,SSE,17.3,25.3,N/A,,Clear,150,2013-06-25 04:15:00
10:35 PM,84.2,59.0,42,29.91,10.0,SSE,18.4,-,N/A,,Clear,150,2013-06-25 04:35:00
10:55 PM,82.4,59.0,45,29.92,10.0,SSE,21.9,29.9,N/A,,Clear,150,2013-06-25 04:55:00
11:15 PM,80.6,60.8,51,29.92,10.0,SSE,21.9,28.8,N/A,,Clear,150,2013-06-25 05:15:00
11:35 PM,80.6,60.8,51,29.92,10.0,SSE,23.0,28.8,N/A,,Clear,150,2013-06-25 05:35:00
11:55 PM,80.6,60.8,51,29.93,10.0,SSE,19.6,27.6,N/A,,Clear,150,2013-06-25 05:55:00